Weather History for Thermal, CA

Change the Weather History Date:

Sunday, July 22, 2012

  Actual Average Record
Temperature  
Mean Temperature 94 °F 91 °F  
Max Temperature 106 °F 107 °F 120 °F (2006)
Min Temperature 82 °F 75 °F 64 °F (1957)
Degree Days  
Heating Degree Days 0 0  
Month to date heating degree days 0 0  
Since 1 June heating degree days 0 0  
Since 1 July heating degree days 0 0  
Cooling Degree Days 29 26  
Month to date cooling degree days 573 555  
Year to date cooling degree days 2054 1836  
Since 1 June cooling degree days 1251 1163  
Growing Degree Days 44 (Base 50)    
Moisture  
Dew Point 66 °F    
Average Humidity 46    
Maximum Humidity 69    
Minimum Humidity 23    
Precipitation  
Precipitation 0.00 in 0.01 in 1.43 in (1997)
Month to date precipitation 0.16 0.09  
Year to date precipitation 0.52 1.91  
Since 1 July precipitation 0.16 0.09  
Snow  
Snow 0.00 in - - ()
Month to date snowfall 0.0  
Year to date snowfall 0.0  
Since 1 July snowfall 0.0  
Snow Depth 0.00 in    
Sea Level Pressure  
Sea Level Pressure 29.79 in    
Wind  
Wind Speed 6 mph (SE)    
Max Wind Speed 14 mph    
Max Gust Speed 21 mph    
Visibility 10 miles    
Events      
T = Trace of Precipitation, MM = Missing Value Source: NWS Daily Summary

Daily Weather History Graph

Daily Weather History Graph

Search for Another Location

Airport:

Trip Planner

Search our weather history database for the weather conditions in past years. The results will help you decide how hot, cold, wet, or windy it might be!

Date:

Astronomy

Jul. 22, 2012 Rise Set
Actual Time 5:50 AM PDT 7:51 PM PDT
Civil Twilight 5:22 AM PDT 8:19 PM PDT
Nautical Twilight 4:48 AM PDT 8:53 PM PDT
Astronomical Twilight 4:12 AM PDT 9:29 PM PDT
Moon 9:26 AM PDT (7/22) 9:53 PM PDT (7/22)
Length of Visible Light 14h 56m
Length of Day
14h 01m
Waxing Crescent, 14% of the Moon is Illuminated
Jul 22
Waxing Crescent
Jul 26
First Quarter
Aug 1
Full
Aug 9
Last Quarter
Aug 17
New

Hourly Weather History & Observations

Time (PDT) Temp. Heat Index Dew Point Humidity Pressure Visibility Wind Dir Wind Speed Gust Speed Precip Events Conditions
12:52 AM 89.1 °F 88.0 °F 57.9 °F 35% 29.75 in 10.0 mi North 4.6 mph - N/A   Clear
1:52 AM 91.9 °F 92.9 °F 63.0 °F 38% 29.78 in 10.0 mi SSE 8.1 mph 17.3 mph N/A   Clear
2:52 AM 90.0 °F 96.9 °F 72.0 °F 55% 29.79 in 10.0 mi SSE 6.9 mph - N/A   Clear
3:52 AM 84.0 °F 89.6 °F 72.0 °F 67% 29.79 in 9.0 mi Calm Calm - N/A   Clear
4:52 AM 84.9 °F 90.1 °F 71.1 °F 63% 29.80 in 10.0 mi Calm Calm - N/A   Clear
5:52 AM 82.0 °F 86.3 °F 71.1 °F 69% 29.82 in 9.0 mi Calm Calm - N/A   Clear
6:52 AM 84.9 °F 90.7 °F 72.0 °F 65% 29.84 in 9.0 mi Calm Calm - N/A   Clear
7:52 AM 93.0 °F 100.7 °F 72.0 °F 50% 29.86 in 8.0 mi Calm Calm - N/A   Clear
8:52 AM 93.9 °F 100.8 °F 71.1 °F 47% 29.87 in 10.0 mi SE 6.9 mph - N/A   Clear
9:52 AM 96.1 °F 101.0 °F 68.0 °F 40% 29.87 in 10.0 mi ESE 10.4 mph - N/A   Clear
10:52 AM 98.1 °F 101.8 °F 66.0 °F 35% 29.85 in 10.0 mi ESE 10.4 mph - N/A   Clear
11:52 AM 100.9 °F 104.0 °F 64.0 °F 30% 29.84 in 10.0 mi SE 11.5 mph - N/A   Clear
12:52 PM 102.9 °F 106.1 °F 64.0 °F 28% 29.82 in 10.0 mi SSE 9.2 mph - N/A   Clear
1:52 PM 104.0 °F 106.6 °F 63.0 °F 26% 29.79 in 10.0 mi SE 10.4 mph 18.4 mph N/A   Clear
2:52 PM 105.1 °F 107.1 °F 61.0 °F 24% 29.76 in 10.0 mi SE 10.4 mph 20.7 mph N/A   Clear
3:52 PM 105.1 °F 107.8 °F 62.1 °F 25% 29.74 in 10.0 mi SSE 10.4 mph - N/A   Clear
4:52 PM 106.0 °F 109.3 °F 63.0 °F 25% 29.72 in 10.0 mi ESE 9.2 mph - N/A   Clear
5:52 PM 105.1 °F 107.8 °F 62.1 °F 25% 29.70 in 10.0 mi SE 10.4 mph - N/A   Clear
6:52 PM 102.9 °F 107.6 °F 66.0 °F 30% 29.71 in 10.0 mi SE 9.2 mph - N/A   Clear
7:52 PM 98.1 °F 103.0 °F 68.0 °F 37% 29.71 in 10.0 mi Calm Calm - N/A   Clear
8:52 PM 96.1 °F 101.6 °F 69.1 °F 41% 29.73 in 10.0 mi WNW 4.6 mph - N/A   Clear
9:52 PM 93.0 °F 97.9 °F 69.1 °F 45% 29.76 in 10.0 mi Calm Calm - N/A   Clear
10:52 PM 95.0 °F 94.0 °F 57.9 °F 29% 29.78 in 10.0 mi North 3.5 mph - N/A   Clear
11:52 PM 93.9 °F 95.6 °F 64.0 °F 37% 29.79 in 10.0 mi Calm Calm - N/A   Clear